When you browse on this site, cookies collect data to enhance your experience and personalize the content and advertising you see.
Visit our Privacy Policy to learn more. By continuing to use the site, you agree to this use of cookies and data.
  • In Deutschland
  • Länderverzeichnis
  • Für 7 Tage
  • Wassertemperatur
  • Wetterkarte
  • Widgets
  • user-avatar
    Anmelden

    Stündliche Wetter Hamilton

    Heute, 31 März, Dienstag

    Zeit Temperatur Niederschläge Wind Luftdruck Luftfeuchtigkeit
    00:00 +13°C° 0 mm 1 m/S 760 mmHg 94%
    01:00 +12°C° 0 mm 1 m/S 760 mmHg 94%
    02:00 +12°C° 0 mm 1 m/S 760 mmHg 95%
    03:00 +12°C° 0 mm 1 m/S 760 mmHg 95%
    04:00 +12°C° 0 mm 1 m/S 760 mmHg 95%
    05:00 +11°C° 0 mm 1 m/S 760 mmHg 95%
    06:00 +10°C° 0 mm 0 m/S 760 mmHg 94%
    07:00 +12°C° 0 mm 1 m/S 760 mmHg 91%
    08:00 +14°C° 0 mm 1 m/S 760 mmHg 88%
    09:00 +16°C° 0 mm 1 m/S 760 mmHg 84%
    10:00 +19°C° 0 mm 1 m/S 760 mmHg 73%
    11:00 +22°C° 0 mm 1 m/S 760 mmHg 63%
    12:00 +24°C° 0 mm 1 m/S 760 mmHg 51%
    13:00 +24°C° 0 mm 1 m/S 759 mmHg 50%
    14:00 +25°C° 0 mm 1 m/S 759 mmHg 49%
    15:00 +25°C° 0 mm 1 m/S 758 mmHg 48%
    16:00 +23°C° 0 mm 1 m/S 759 mmHg 57%
    17:00 +21°C° 0 mm 1 m/S 759 mmHg 65%
    18:00 +18°C° 0 mm 2 m/S 759 mmHg 74%
    19:00 +16°C° 0 mm 1 m/S 759 mmHg 79%
    20:00 +15°C° 0 mm 1 m/S 760 mmHg 84%
    21:00 +14°C° 0 mm 1 m/S 760 mmHg 89%
    22:00 +13°C° 0 mm 1 m/S 760 mmHg 89%
    23:00 +12°C° 0 mm 0 m/S 760 mmHg 89%

    Morgen, 1 April, Mittwoch

    Zeit Temperatur Niederschläge Wind Luftdruck Luftfeuchtigkeit
    00:00 +12°C° 0 mm 0 m/S 760 mmHg 88%
    01:00 +11°C° 0 mm 0 m/S 760 mmHg 89%
    02:00 +11°C° 0 mm 0 m/S 760 mmHg 90%
    03:00 +11°C° 0 mm 0 m/S 760 mmHg 90%
    04:00 +11°C° 0 mm 0 m/S 760 mmHg 91%
    05:00 +11°C° 0 mm 1 m/S 760 mmHg 92%
    06:00 +11°C° 0 mm 1 m/S 760 mmHg 93%
    07:00 +13°C° 0 mm 1 m/S 760 mmHg 86%
    08:00 +14°C° 0 mm 0 m/S 760 mmHg 79%
    09:00 +16°C° 0 mm 0 m/S 761 mmHg 71%
    10:00 +18°C° 0 mm 0 m/S 760 mmHg 63%
    11:00 +20°C° 0 mm 0 m/S 760 mmHg 55%
    12:00 +25°C° 0 mm 1 m/S 760 mmHg 46%
    13:00 +25°C° 0 mm 1 m/S 759 mmHg 45%
    14:00 +25°C° 0 mm 1 m/S 759 mmHg 43%
    15:00 +25°C° 0 mm 2 m/S 758 mmHg 42%
    16:00 +23°C° 0 mm 2 m/S 758 mmHg 51%
    17:00 +20°C° 0 mm 2 m/S 759 mmHg 61%
    18:00 +17°C° 0 mm 2 m/S 759 mmHg 71%
    19:00 +16°C° 0 mm 2 m/S 759 mmHg 77%
    20:00 +14°C° 0 mm 1 m/S 759 mmHg 84%
    21:00 +13°C° 0 mm 1 m/S 760 mmHg 91%
    22:00 +12°C° 0 mm 1 m/S 760 mmHg 91%
    23:00 +11°C° 0 mm 0 m/S 760 mmHg 92%

    übermorgen, 2 April, Donnerstag

    Zeit Temperatur Niederschläge Wind Luftdruck Luftfeuchtigkeit
    00:00 +10°C° 0 mm 0 m/S 760 mmHg 92%
    01:00 +10°C° 0 mm 0 m/S 759 mmHg 93%
    02:00 +10°C° 0 mm 0 m/S 759 mmHg 94%
    03:00 +11°C° 0 mm 1 m/S 759 mmHg 94%
    04:00 +10°C° 0 mm 1 m/S 759 mmHg 95%
    05:00 +10°C° 0 mm 1 m/S 759 mmHg 95%
    06:00 +10°C° 0 mm 1 m/S 759 mmHg 95%
    07:00 +12°C° 0 mm 1 m/S 759 mmHg 89%
    08:00 +14°C° 0 mm 1 m/S 759 mmHg 83%
    09:00 +16°C° 0 mm 1 m/S 760 mmHg 77%
    10:00 +19°C° 0 mm 1 m/S 759 mmHg 69%
    11:00 +22°C° 0 mm 1 m/S 759 mmHg 60%
    12:00 +24°C° 0 mm 1 m/S 759 mmHg 52%
    13:00 +24°C° 0 mm 1 m/S 758 mmHg 49%
    14:00 +25°C° 0 mm 1 m/S 758 mmHg 46%
    15:00 +25°C° 0 mm 1 m/S 757 mmHg 43%
    16:00 +23°C° 0 mm 2 m/S 757 mmHg 52%
    17:00 +20°C° 0 mm 2 m/S 758 mmHg 61%
    18:00 +18°C° 0 mm 2 m/S 758 mmHg 70%
    19:00 +17°C° 0 mm 2 m/S 758 mmHg 74%
    20:00 +15°C° 0 mm 2 m/S 758 mmHg 78%
    21:00 +14°C° 0 mm 1 m/S 759 mmHg 82%
    22:00 +13°C° 0 mm 1 m/S 759 mmHg 82%
    23:00 +13°C° 0 mm 1 m/S 759 mmHg 83%

    3 April, Freitag

    Zeit Temperatur Niederschläge Wind Luftdruck Luftfeuchtigkeit
    00:00 +12°C° 0 mm 2 m/S 759 mmHg 84%
    01:00 +12°C° 0 mm 2 m/S 759 mmHg 85%
    02:00 +10°C° 0 mm 2 m/S 759 mmHg 85%
    03:00 +10°C° 0 mm 2 m/S 759 mmHg 86%
    04:00 +9°C° 0 mm 2 m/S 759 mmHg 87%
    05:00 +10°C° 0 mm 1 m/S 760 mmHg 88%
    06:00 +9°C° 0 mm 1 m/S 760 mmHg 89%
    07:00 +11°C° 0 mm 1 m/S 760 mmHg 81%
    08:00 +13°C° 0 mm 1 m/S 760 mmHg 74%
    09:00 +15°C° 0 mm 1 m/S 760 mmHg 66%
    10:00 +18°C° 0 mm 1 m/S 760 mmHg 59%
    11:00 +21°C° 0 mm 1 m/S 760 mmHg 53%
    12:00 +21°C° 0 mm 0 m/S 760 mmHg 47%
    13:00 +21°C° 0 mm 0 m/S 760 mmHg 45%
    14:00 +24°C° 0 mm 1 m/S 759 mmHg 43%
    15:00 +24°C° 0 mm 1 m/S 759 mmHg 41%
    16:00 +20°C° 0 mm 0 m/S 759 mmHg 48%
    17:00 +18°C° 0 mm 0 m/S 759 mmHg 55%
    18:00 +16°C° 0 mm 0 m/S 760 mmHg 63%
    19:00 +15°C° 0 mm 0 m/S 760 mmHg 68%
    20:00 +14°C° 0 mm 1 m/S 761 mmHg 73%
    21:00 +13°C° 0 mm 1 m/S 761 mmHg 78%
    22:00 +12°C° 0 mm 1 m/S 761 mmHg 81%
    23:00 +12°C° 0 mm 1 m/S 761 mmHg 84%

    4 April, Samstag

    Zeit Temperatur Niederschläge Wind Luftdruck Luftfeuchtigkeit
    00:00 +11°C° 0 mm 1 m/S 762 mmHg 86%
    01:00 +11°C° 0 mm 1 m/S 762 mmHg 87%
    02:00 +11°C° 0 mm 1 m/S 762 mmHg 88%
    03:00 +11°C° 0 mm 1 m/S 762 mmHg 90%
    04:00 +11°C° 0 mm 1 m/S 762 mmHg 90%
    05:00 +11°C° 0 mm 1 m/S 763 mmHg 90%
    06:00 +11°C° 0 mm 1 m/S 763 mmHg 91%
    07:00 +12°C° 0 mm 1 m/S 763 mmHg 83%
    08:00 +14°C° 0 mm 1 m/S 764 mmHg 76%
    09:00 +16°C° 0 mm 1 m/S 764 mmHg 68%
    10:00 +19°C° 0 mm 1 m/S 764 mmHg 63%
    11:00 +21°C° 0 mm 1 m/S 764 mmHg 57%
    12:00 +23°C° 0 mm 1 m/S 764 mmHg 51%
    13:00 +23°C° 0 mm 1 m/S 763 mmHg 49%
    14:00 +23°C° 0 mm 1 m/S 763 mmHg 47%
    15:00 +24°C° 0 mm 1 m/S 763 mmHg 45%
    16:00 +22°C° 0 mm 1 m/S 763 mmHg 52%
    17:00 +20°C° 0 mm 1 m/S 763 mmHg 59%
    18:00 +18°C° 0 mm 1 m/S 763 mmHg 66%
    19:00 +16°C° 0 mm 1 m/S 764 mmHg 71%
    20:00 +15°C° 0 mm 1 m/S 765 mmHg 76%
    21:00 +13°C° 0 mm 1 m/S 765 mmHg 80%
    22:00 +13°C° 0 mm 1 m/S 765 mmHg 80%
    23:00 +13°C° 0 mm 1 m/S 766 mmHg 81%

    5 April, Sonntag

    Zeit Temperatur Niederschläge Wind Luftdruck Luftfeuchtigkeit
    00:00 +13°C° 0 mm 1 m/S 766 mmHg 81%
    01:00 +12°C° 0 mm 1 m/S 766 mmHg 83%
    02:00 +12°C° 0 mm 1 m/S 766 mmHg 85%
    03:00 +11°C° 0 mm 1 m/S 766 mmHg 87%
    04:00 +11°C° 0 mm 1 m/S 766 mmHg 89%
    05:00 +11°C° 0 mm 1 m/S 766 mmHg 90%
    06:00 +10°C° 0 mm 1 m/S 766 mmHg 91%
    07:00 +12°C° 0 mm 1 m/S 767 mmHg 83%
    08:00 +14°C° 0 mm 1 m/S 767 mmHg 76%
    09:00 +16°C° 0 mm 1 m/S 767 mmHg 68%
    10:00 +18°C° 0 mm 1 m/S 767 mmHg 62%
    11:00 +19°C° 0 mm 2 m/S 766 mmHg 55%
    12:00 +21°C° 0 mm 2 m/S 766 mmHg 49%
    13:00 +21°C° 0 mm 2 m/S 766 mmHg 48%
    14:00 +23°C° 0 mm 2 m/S 765 mmHg 47%
    15:00 +23°C° 0 mm 2 m/S 765 mmHg 46%
    16:00 +20°C° 0 mm 2 m/S 765 mmHg 53%
    17:00 +18°C° 0 mm 2 m/S 765 mmHg 60%
    18:00 +16°C° 0 mm 2 m/S 765 mmHg 67%
    19:00 +15°C° 0 mm 2 m/S 765 mmHg 74%
    20:00 +13°C° 0 mm 1 m/S 766 mmHg 81%
    21:00 +12°C° 0 mm 1 m/S 766 mmHg 88%
    22:00 +11°C° 0 mm 1 m/S 766 mmHg 88%
    23:00 +10°C° 0 mm 0 m/S 766 mmHg 89%
    Mehr zeigen